Other Public Products
Issued by NWS Grand Forks, ND

Home | Current Version | Previous Version | Text Only | Print | Product List | Glossary Off
Versions: 1 2 3 4 5 6 7 8 9 10 11 12 13 14 15 16 17 18 19 20 21 22 23 24 25 26 27 28 29 30 31 32 33 34 35 36 37 38 39 40 41 42 43 44 45 46 47 48 49 50

000
FPUS83 KFGF 120310
OPUFGF
PRAIRIE TO PINES WEATHER ROUNDUP
NATIONAL WEATHER SERVICE EASTERN NORTH DAKOTA/GRAND FORKS ND
900 PM CST THU FEB 11 2016

 **SATELLITE DATA USED TO AUGMENT SKY COVER AT AUTOMATED STATIONS**
 *****  WEATHER ACROSS EASTERN NORTH DAKOTA  *****

CITY           SKY/WX    TMP DP  RH WIND       PRES   REMARKS
GRAND FORKS    CLOUDY    12   5  73 N10       30.30R WCI  -1
GRAND FORKS AF FLURRIES  11   5  75 N7        30.30R WCI   0
GRAND CITY NWS NOT AVBL
BUXTON         NOT AVBL
DEVILS LAKE    FLURRIES   9   6  88 W6        30.28S WCI  -1
FARGO          CLOUDY    13   7  77 NW7       30.28S WCI   3
WAHPETON ARPT  CLOUDY    12   7  79 NW9       30.28R WCI   0
$$

 *****  WEATHER ACROSS CENTRAL AND WESTERN NORTH DAKOTA  *****

CITY           SKY/WX    TMP DP  RH WIND       PRES   REMARKS
JAMESTOWN      CLOUDY    10   6  84 N9        30.26R WCI  -3
BISMARCK       CLOUDY    22  15  75 N9        30.28S WCI  12
MINOT          CLOUDY    17   9  70 NW5       30.27S WCI  10
MINOT AFB      CLOUDY    13  11  92 CALM      30.27R
GARRISON         N/A     16  12  84 CALM      30.26S
WILLISTON      LGT SNOW  21  16  81 N5        30.30R WCI  15
DICKINSON      CLOUDY    23  19  85 N7        30.21R WCI  15
HETTINGER      CLOUDY    23  19  85 N3        30.23S
$$

 *****  OTHER OBSERVATIONS NORTHEAST NORTH DAKOTA  *****

CITY           SKY/WX    TMP DP  RH WIND       PRES   REMARKS
WALHALLA       FAIR       7   5  92 NW10      30.32S WCI  -8
LANGDON        CLOUDY     7   3  85 NW9       30.26R WCI  -7
CAVALIER       FAIR       9   5  85 NW8       30.31S WCI  -4
GRAFTON        FAIR       9   5  85 NW7       30.33S WCI  -3
CANDO          NOT AVBL
FORT TOTTEN    NOT AVBL
ROLLA          CLOUDY     9   5  85 N14       30.26S WCI  -8
RUGBY          CLOUDY    14  10  85 NW9       30.28S WCI   2
 ***** THE ABOVE OBSERVATIONS ARE NON NWS ARE NOT QUALITY
        CONTROLLED AND MAY MIS-REPORT RAIN FOR SNOW...
$$

 *****  OTHER OBSERVATIONS SOUTHEAST NORTH DAKOTA *****

CITY           SKY/WX    TMP DP  RH WIND       PRES   REMARKS
COOPERSTOWN    NOT AVBL
VALLEY CITY    FLURRIES  10   9  92 N13       30.28R WCI  -5
OAKES          CLOUDY    14  10  85 N9        30.27R WCI   2
GWINNER        MOCLDY    12  10  92 NW6       30.27R WCI   3
SHEYENNE NWR     N/A      9   4  80 NW2       29.95S
BUFFALO        NOT AVBL
WYNDMERE       NOT AVBL
 ***** THE ABOVE OBSERVATIONS ARE NON NWS ARE NOT QUALITY
       CONTROLLED AND MAY MIS-REPORT RAIN FOR SNOW...
$$

  *****  WEATHER ACROSS NORTHERN MINNESOTA  *****

CITY           SKY/WX    TMP DP  RH WIND       PRES   REMARKS
FLAG ISLAND    CLEAR      3  -2  78 NW14      30.18F WCI -15
WARROAD        CLEAR      5   0  78 W7        30.21F WCI  -7
ROSEAU         CLEAR      3   0  85 W7        30.23S WCI  -9
HALLOCK        CLEAR      7   1  78 NW8       30.29R WCI  -6
THF RVR FALLS  CLOUDY     9   9 100 NW14      30.26R WCI  -8
HALSTAD        NOT AVBL
FOSSTON        FLURRIES   7   3  85 W6        30.23R WCI  -3
BAUDETTE       PTCLDY     5  -3  69 NW14      30.17R WCI -12
WASKISH        MOCLDY     7   3  85 W8        30.18S WCI  -6
CROOKSTON      CLOUDY    10   5  79 N16       30.30R WCI  -7
$$
  *****  WEATHER ACROSS CENTRAL AND WEST MINNESOTA  *****

CITY           SKY/WX    TMP DP  RH WIND       PRES   REMARKS
BEMIDJI        FLURRIES   7   3  82 W7        30.18S WCI  -4
PARK RAPIDS    CLOUDY    11   1  64 NW12      30.18S WCI  -3
WADENA         CLOUDY    10   5  79 NW9       30.20S WCI  -2
DETROIT LAKES  CLOUDY    12   5  73 NW8       30.22S WCI   1
MOORHEAD       CLOUDY    10   7  85 NW8       30.28S WCI  -1
FERGUS FALLS   CLOUDY    12   9  85 NW8       30.27F WCI   1
ELBOW LAKE     LGT SNOW  13  10  90 W6        30.23F WCI   4
MORRIS MN      FLURRIES  14  10  85 NW10      30.23R WCI   1
STAPLES        CLOUDY    12   3  67 W8        30.19S WCI   1
WHEATON        FLURRIES  16  12  86 NW8       30.28S WCI   5
$$
  *****  WEATHER ELSEWHERE ACROSS MINNESOTA  *****

CITY           SKY/WX    TMP DP  RH WIND       PRES   REMARKS
DULUTH         CLOUDY    11  -2  56 W10       30.11S WCI  -3
INTRNTL FALLS  CLEAR      6   0  76 W9        30.13S WCI  -8
ELY            CLOUDY     7  -2  66 W9        30.08S WCI  -7
CLOQUET        CLOUDY    12   0  57 W8        30.13S WCI   1
BRAINERD       CLOUDY    14   4  64 W6        30.18F WCI   5
HIBBING        CLOUDY     8  -3  61 W6        30.12S WCI  -2
ALEXANDRIA     CLOUDY    12   8  84 NW6       30.20F WCI   3
SAINT CLOUD    CLOUDY    12   9  87 W5        30.22S WCI   4
MINNEAPOLIS    FLURRIES  14   8  77 W5        30.24S WCI   6
$$

  *****  WEATHER ACROSS SOUTH DAKOTA  *****

CITY           SKY/WX    TMP DP  RH WIND       PRES   REMARKS
SIOUX FALLS    LGT SNOW  10   8  92 CALM      30.21R
BROOKINGS      LGT SNOW  11   8  88 CALM      30.20R FOG
WATERTOWN      CLOUDY    19  14  81 N10       30.19R WCI   7
HURON          CLOUDY    21  19  92 W3        30.23S
SISSETON         N/A     14  11  87 N8        30.25S WCI   3
ABERDEEN       CLOUDY    18  11  74 N7        30.27R WCI   9
MITCHELL       CLOUDY    18  16  92 CALM      30.24S
PIERRE         CLOUDY    27  24  89 NW3       30.22R
MOBRIDGE       CLOUDY    25  20  81 N12       30.23R WCI  14
RAPID CITY     CLOUDY    33  29  85 N14       30.20R WCI  23
$$

  *****  SOME WEATHER IN NEARBY STATES *****

CITY           SKY/WX    TMP DP  RH WIND       PRES   REMARKS
GLASGOW MT     CLOUDY    31  26  82 CALM      30.26R
GREAT FALLS MT PTCLDY    39  30  70 NE5       30.26R
CHEYENNE WY    CLOUDY    40  24  53 N9        30.26R
SCOTTSBLUFF NE CLEAR     37  27  67 N5        30.22R
OMAHA NE       FLURRIES  25  19  78 N5        30.21S WCI  19
DES MOINES IA  LGT SNOW  19  14  81 E5        30.25F WCI  12
DAVENPORT IA   CLOUDY    21   7  54 CALM      30.27F
CHICAGO IL     PTCLDY    16   5  62 W5        30.27S WCI   9
EAU CLAIRE WI  CLOUDY    14   1  56 W8        30.21F WCI   3
LA CROSSE WI   CLOUDY    15   2  56 SW7       30.26F WCI   5
$$

  *****  SOME NATIONAL WEATHER *****

CITY           SKY/WX    TMP DP  RH WIND       PRES   REMARKS
LA GUARDIA NY  PTCLDY    21   3  45 NW18G25   30.16R WCI   6
RALEIGH NC     CLEAR     28  11  48 NE7       30.28R WCI  21
ATLANTA GA     PTCLDY    45  24  43 N8        30.17S
NEW ORLEANS LA PTCLDY    62  54  74 SW7       30.21S
OKLAHOMA CITY  CLOUDY    46  31  55 N6        30.16S
ALBUQUERQUE NM CLOUDY    54  18  24 N8        30.32R
SALT LAKE CITY MOCLDY    30  27  88 SE5       30.42F FOG
LOS ANGELES CA CLEAR     66  44  45 W3        30.09R
BOISE ID       PTCLDY    39  33  79 S3        30.34F
SEATTLE WA     LGT RAIN  51  49  92 SE8       30.12F
$$

*** WEATHER ACROSS MANITOBA...SASKATCHEWAN AND ONTARIO ***
                ***ONTARIO***

CITY           SKY/WX    TMP DP  RH WIND       PRES   REMARKS
GERALDTON      FLURRIES   3  -2  78 W5        29.88F WCI  -6
THUNDER BAY    MOCLDY     7   0  72 W9        30.04F WCI  -7
SIOUX LOOKOUT  CLEAR      1  -4  78 NW12G18   30.01S WCI -15
TORONTO        PTCLDY    10   1  67 SW10G17   30.18S WCI  -3
BIG TROUT LK   CLEAR    -24 -31  69 NW9G20    30.10R WCI -45
PICKLE LAKE    NOT AVBL
DRYDEN         CLEAR      1  -4  78 W12G17    30.05R WCI -15
KENORA         CLEAR      0  -6  78 NW10G17   30.13S WCI -17
$$
                *** MANITOBA***

CITY           SKY/WX    TMP DP  RH WIND       PRES   REMARKS
BRANDON        PTCLDY    -2  -8  78 NW9       30.32R WCI -18
DAUPHIN        CLEAR    -11 -15  84 W8        30.36R WCI -28
ISLAND LAKE    PTCLDY   -18 -24  76 N10G17    30.26R WCI -39
PILOT MOUND      N/A      5   1  85 NW8         N/A  WCI  -8
THE PAS        CLEAR     -8 -15  71 N13G21    30.45R WCI -28
THOMPSON       NOT AVBL
WINNIPEG       CLEAR     -2 -11  65 NW10      30.31R WCI -19
LYNN LAKE      CLEAR    -22 -29  69 N14       30.47R WCI -47
CHURCHILL      CRYSTALS -24 -31  69 NW24G35   30.32R VSB 5/8 WCI -56
GILLAM         CLEAR    -24 -33  62 NW17G24   30.29R WCI -52
$$
                ***SASKATCHEWAN***

CITY           SKY/WX    TMP DP  RH WIND       PRES   REMARKS
ESTEVAN        MOCLDY    16  10  79 N6        30.29R WCI   7
KINDERSLEY     FLURRIES  14  10  85 E13       30.33R WCI   0
LLOYDMINSTER   FLURRIES   9   5  85 E10       30.38R WCI  -6
PRINCE ALBERT  NOT AVBL
REGINA         PTCLDY     9   3  78 N9        30.36R WCI  -5
YORKTON        CLEAR     -2  -8  78 NW13      30.36R WCC1F1C2F2C3F3C4F4C5F5C6F6C7F7C8F8C9F9CaFaCbFbCcFcCdFdCe!


USA.gov is the U.S. government's official web portal to all federal, state and local government web resources and services.